| time (UTC) | temp F | wind direction | speed knots | gust knots | rain 1hr in | rain 24hr in | rain mn in | humidity % | barometer mb |
| 20260505011516 | 75 | 180 | 2.6 | 6.1 | 0.00 | 0.31 | 0.31 | 52 | 1003.7 |
| 20260505010516 | 75 | 180 | 2.6 | 6.1 | 0.00 | 0.31 | 0.31 | 52 | 1003.5 |
| 20260505005517 | 75 | 158 | 2.6 | 7.0 | 0.00 | 0.31 | 0.31 | 51 | 1003.4 |
| 20260505004516 | 76 | 180 | 2.6 | 6.1 | 0.00 | 0.31 | 0.31 | 50 | 1003.2 |
| 20260505003516 | 76 | 180 | 2.6 | 5.2 | 0.00 | 0.31 | 0.31 | 50 | 1003.0 |
| 20260505002516 | 77 | 203 | 2.6 | 7.8 | 0.00 | 0.31 | 0.31 | 49 | 1003.0 |
| 20260505001516 | 77 | 248 | 2.6 | 6.1 | 0.00 | 0.31 | 0.31 | 49 | 1003.0 |
| 20260505000517 | 78 | 180 | 3.5 | 8.7 | 0.00 | 0.31 | 0.31 | 49 | 1002.9 |
| 20260504235536 | 78 | 203 | 2.6 | 7.0 | 0.00 | 0.31 | 0.31 | 48 | 1003.0 |
| 20260504234516 | 79 | 225 | 2.6 | 6.1 | 0.00 | 0.31 | 0.31 | 48 | 1002.9 |
| 20260504233516 | 79 | 203 | 5.2 | 12.2 | 0.00 | 0.31 | 0.31 | 46 | 1003.0 |
| 20260504232516 | 80 | 180 | 4.3 | 9.6 | 0.00 | 0.31 | 0.31 | 46 | 1003.2 |
| 20260504231518 | 80 | 180 | 3.5 | 8.7 | 0.00 | 0.31 | 0.31 | 47 | 1003.3 |
| 20260504230516 | 80 | 180 | 3.5 | 9.6 | 0.00 | 0.31 | 0.31 | 46 | 1003.4 |
| 20260504225516 | 80 | 180 | 3.5 | 7.0 | 0.00 | 0.31 | 0.31 | 47 | 1003.6 |
| 20260504224516 | 80 | 158 | 4.3 | 9.6 | 0.00 | 0.31 | 0.31 | 48 | 1003.7 |
| 20260504223516 | 79 | 180 | 5.2 | 10.4 | 0.00 | 0.31 | 0.31 | 49 | 1003.7 |
| 20260504222516 | 79 | 135 | 3.5 | 8.7 | 0.00 | 0.31 | 0.31 | 51 | 1003.8 |
| 20260504221516 | 79 | 225 | 2.6 | 8.7 | 0.00 | 0.31 | 0.31 | 54 | 1003.6 |
| 20260504220516 | 78 | 180 | 3.5 | 6.1 | 0.00 | 0.31 | 0.31 | 55 | 1003.7 |
| 20260504215516 | 78 | 180 | 3.5 | 5.2 | 0.00 | 0.31 | 0.31 | 54 | 1003.7 |
| 20260504214536 | 77 | 180 | 2.6 | 7.0 | 0.00 | 0.31 | 0.31 | 58 | 1003.7 |
| 20260504213516 | 76 | 225 | 2.6 | 7.8 | 0.00 | 0.31 | 0.31 | 63 | 1003.8 |
| 20260504212539 | 75 | 180 | 1.7 | 5.2 | 0.00 | 0.31 | 0.31 | 65 | 1003.8 |
| 20260504211516 | 74 | 180 | 1.7 | 5.2 | 0.00 | 0.31 | 0.31 | 67 | 1004.0 |
| 20260504210516 | 73 | 180 | 1.7 | 6.1 | 0.00 | 0.31 | 0.31 | 68 | 1004.2 |
| 20260504205516 | 73 | 225 | 2.6 | 6.1 | 0.00 | 0.31 | 0.31 | 67 | 1004.2 |
| 20260504204516 | 73 | 158 | 3.5 | 7.0 | 0.00 | 0.31 | 0.31 | 68 | 1004.4 |
| 20260504203516 | 71 | 113 | 2.6 | 8.7 | 0.01 | 0.31 | 0.31 | 72 | 1004.5 |
| 20260504202516 | 69 | 135 | 2.6 | 6.1 | 0.01 | 0.31 | 0.31 | 77 | 1004.4 |
| 20260504201516 | 67 | 158 | 3.5 | 7.0 | 0.03 | 0.31 | 0.31 | 80 | 1004.5 |
| 20260504200516 | 65 | 338 | 1.7 | 7.0 | 0.11 | 0.31 | 0.31 | 85 | 1004.8 |
| 20260504195516 | 65 | 270 | 1.7 | 4.3 | 0.26 | 0.31 | 0.31 | 85 | 1004.4 |
| 20260504194515 | 64 | 158 | 4.3 | 7.8 | 0.31 | 0.31 | 0.31 | 87 | 1004.6 |
| 20260504193516 | 63 | 180 | 2.6 | 7.0 | 0.30 | 0.30 | 0.30 | 87 | 1004.9 |
| 20260504192516 | 62 | 68 | 1.7 | 2.6 | 0.30 | 0.30 | 0.30 | 87 | 1004.8 |
| 20260504191516 | 63 | 68 | 1.7 | 3.5 | 0.28 | 0.28 | 0.28 | 86 | 1005.6 |
| 20260504190516 | 64 | 68 | 0.9 | 2.6 | 0.20 | 0.20 | 0.20 | 83 | 1006.6 |
| 20260504185636 | 67 | 0 | 1.7 | 3.5 | 0.05 | 0.05 | 0.05 | 76 | 1006.2 |
| 20260504184515 | 70 | 338 | 2.6 | 4.3 | 0.00 | 0.00 | 0.00 | 65 | 1006.2 |
| 20260504183515 | 72 | 113 | 0.9 | 2.6 | 0.00 | 0.00 | 0.00 | 59 | 1006.4 |
| 20260504182516 | 72 | 135 | 1.7 | 3.5 | 0.00 | 0.00 | 0.00 | 57 | 1006.5 |
| 20260504181515 | 72 | 135 | 1.7 | 7.0 | 0.00 | 0.00 | 0.00 | 58 | 1006.4 |
| 20260504180515 | 71 | 135 | 3.5 | 8.7 | 0.00 | 0.00 | 0.00 | 60 | 1005.9 |
| 20260504175518 | 70 | 158 | 1.7 | 7.8 | 0.00 | 0.00 | 0.00 | 62 | 1006.0 |
| 20260504174518 | 69 | 135 | 2.6 | 5.2 | 0.00 | 0.00 | 0.00 | 63 | 1006.2 |
| 20260504173517 | 68 | 158 | 2.6 | 6.1 | 0.00 | 0.00 | 0.00 | 63 | 1006.4 |
| 20260504172518 | 68 | 158 | 3.5 | 7.8 | 0.00 | 0.00 | 0.00 | 63 | 1006.3 |
| 20260504171518 | 67 | 135 | 3.5 | 7.8 | 0.00 | 0.00 | 0.00 | 64 | 1006.2 |
| 20260504170518 | 67 | 135 | 2.6 | 6.1 | 0.00 | 0.00 | 0.00 | 64 | 1006.9 |
| 20260504150517 | 69 | 180 | 2.6 | 4.3 | 0.00 | 0.00 | 0.00 | 60 | 1008.9 |
| 20260504140517 | 66 | 180 | 3.5 | 7.0 | 0.00 | 0.00 | 0.00 | 65 | 1008.5 |
| 20260504130517 | 63 | 135 | 2.6 | 5.2 | 0.00 | 0.00 | 0.00 | 73 | 1009.3 |
| 20260504110517 | 54 | 0.0 | 0.0 | 0.00 | 0.00 | 0.00 | 86 | 1009.5 | |
| 20260504100517 | 55 | 0.0 | 0.0 | 0.00 | 0.00 | 0.00 | 83 | 1009.1 | |
| 20260504081516 | 57 | 0.0 | 0.9 | 0.00 | 0.00 | 0.00 | 77 | 1009.2 | |
| 20260504080516 | 58 | 0.0 | 1.7 | 0.00 | 0.00 | 0.00 | 76 | 1009.2 | |
| 20260504050516 | 64 | 158 | 0.9 | 3.5 | 0.00 | 0.00 | 0.00 | 59 | 1009.0 |
| 20260504045517 | 64 | 180 | 1.7 | 4.3 | 0.00 | 0.00 | 0.00 | 59 | 1009.2 |
| 20260504044517 | 65 | 180 | 1.7 | 2.6 | 0.00 | 0.00 | 0.00 | 58 | 1009.5 |
| 20260504043517 | 65 | 203 | 1.7 | 4.3 | 0.00 | 0.00 | 0.00 | 57 | 1009.8 |
| 20260504042537 | 66 | 180 | 1.7 | 3.5 | 0.00 | 0.00 | 0.00 | 56 | 1010.1 |
| 20260504041537 | 66 | 203 | 1.7 | 5.2 | 0.00 | 0.00 | 0.00 | 55 | 1010.3 |
| 20260504040517 | 66 | 135 | 1.7 | 4.3 | 0.00 | 0.00 | 0.00 | 54 | 1010.3 |
| 20260504035517 | 66 | 113 | 2.6 | 5.2 | 0.00 | 0.00 | 0.00 | 54 | 1010.5 |
| 20260504034517 | 66 | 158 | 1.7 | 5.2 | 0.00 | 0.00 | 0.00 | 54 | 1010.5 |
| 20260504033517 | 66 | 158 | 1.7 | 3.5 | 0.00 | 0.00 | 0.00 | 54 | 1010.7 |
| 20260504032517 | 66 | 225 | 0.9 | 3.5 | 0.00 | 0.00 | 0.00 | 54 | 1010.6 |
| 20260504031517 | 66 | 135 | 1.7 | 4.3 | 0.00 | 0.00 | 0.00 | 53 | 1010.6 |
| 20260504030516 | 66 | 203 | 1.7 | 3.5 | 0.00 | 0.00 | 0.00 | 53 | 1010.4 |
| 20260504025537 | 66 | 158 | 0.9 | 2.6 | 0.00 | 0.00 | 0.00 | 54 | 1010.3 |
| 20260504024516 | 66 | 158 | 0.9 | 2.6 | 0.00 | 0.00 | 0.00 | 53 | 1010.3 |
| 20260504023516 | 66 | 180 | 1.7 | 4.3 | 0.00 | 0.00 | 0.00 | 53 | 1010.4 |
| 20260504022516 | 66 | 0.0 | 0.0 | 0.00 | 0.00 | 0.00 | 54 | 1010.3 | |
| 20260504021518 | 66 | 0.0 | 1.7 | 0.00 | 0.00 | 0.00 | 53 | 1010.2 | |
| 20260504020516 | 67 | 0.0 | 0.9 | 0.00 | 0.00 | 0.00 | 52 | 1010.1 | |
| 20260504015537 | 67 | 0.0 | 2.6 | 0.00 | 0.00 | 0.00 | 51 | 1010.1 | |
| 20260504014516 | 68 | 0.0 | 0.0 | 0.00 | 0.00 | 0.00 | 51 | 1009.9 | |
| 20260504013516 | 69 | 158 | 0.9 | 2.6 | 0.00 | 0.00 | 0.00 | 49 | 1009.9 |
| 20260504012517 | 70 | 180 | 0.9 | 2.6 | 0.00 | 0.00 | 0.00 | 47 | 1009.8 |